Flag Weather past 2 weeks in Schwäbisch Gmünd, Baden-Württemberg, Germany

Now
39 °F

Clear.


Feels Like: 34 °F
Forecast: 42 / 58 °F
Wind: 6 mph from Southeast

Location: Stoetten

Current Time: Nov 23, 2014 at 4:40:35 AM

Latest Report: Nov 23, 2014 at 4:00 AM


Visibility: 8 mi

Pressure: 30.22 "Hg

Humidity: 92%

Dew point: 37 °F

Location of Schwäbisch GmündLocation

Historic Weather in Schwäbisch Gmünd — Graph

°F

Schwäbisch Gmünd temperature yesterday

Maximum temperature yesterday: 45 °F (at 9:00 AM)
Minimum temperature yesterday: 37 °F (at 12:00 AM)
Average temperature yesterday: 40 °F

Past Weeks' High & Low Weather Summary

 TemperatureHumidityPressure
High53 °F (Nov 12, 3:00 AM)100% (Nov 8, 5:00 AM)30.35 "Hg (Nov 8, 5:00 AM)
Low34 °F (Nov 20, 8:00 AM)58% (Nov 8, 1:00 PM)29.50 "Hg (Nov 16, 12:00 AM)
Average40 °F97%29.91 "Hg
* Reported Nov 8 3:00 AM — Nov 23 3:00 AM, Schwäbisch Gmünd, Weather by CustomWeather, © 2014

Note: Actual official high and low records may vary slightly from our data, if they occured in-between our weather recording intervals... More about our weather records

Advertising

Schwäbisch Gmünd weather history for previous 24 hours

 ConditionsComfort  
Time TempWeatherWind HumidityBarometerVisibility
3:00 AM
Nov 23
40 °FClear.6 mph97%30.23 "Hg3 mi
2:00 AM40 °FFog.6 mph95%30.23 "Hg4 mi
1:00 AM40 °FClear.6 mph97%30.23 "Hg3 mi
12:00 AM39 °FPassing clouds.5 mph100%30.24 "Hg0 mi
11:00 PM
Nov 22
39 °FPassing clouds.5 mph100%30.24 "Hg2 mi
10:00 PM38 °FLow clouds.5 mph100%30.24 "Hg0 mi
9:00 PM38 °FFog.5 mph100%30.24 "Hg0 mi
8:00 PM39 °FFog.5 mph100%30.22 "Hg1 mi
7:00 PM41 °FFog.5 mph99%30.20 "Hg1 mi
6:00 PM39 °FFog.3 mph100%30.21 "Hg0 mi
5:00 PM40 °FFog.3 mph100%30.20 "Hg0 mi
4:00 PM42 °FFog.3 mph100%30.19 "Hg0 mi
3:00 PM43 °FFog.2 mph100%30.18 "Hg0 mi
2:00 PM44 °FFog.2 mph96%30.17 "Hg0 mi
1:00 PM43 °FFog.2 mph97%30.18 "Hg1 mi
12:00 PM43 °FFog.2 mph98%30.19 "Hg1 mi
11:00 AM44 °FFog.2 mph94%30.19 "Hg2 mi
10:00 AM41 °FFog.2 mph97%30.20 "Hg2 mi
9:00 AM45 °FFog.1 mph96%30.17 "Hg2 mi
8:00 AM39 °FFog.No wind99%30.20 "Hg2 mi
7:00 AM39 °FLow clouds.2 mph97%30.19 "Hg6 mi
6:00 AM39 °FFog.5 mph99%30.18 "Hg2 mi
5:00 AM38 °FOvercast.5 mph98%30.18 "Hg1 mi
4:00 AM38 °FFog.3 mph99%30.18 "Hg1 mi
Weather by CustomWeather, © 2014

See weather overviewHow to use our weather pages